Time,TemperatureF,DewpointF,PressureIn,WindDirection,WindDirectionDegrees,WindSpeedMPH,WindSpeedGustMPH,Humidity,HourlyPrecipIn,Conditions,Clouds,dailyrainin,SolarRadiationWatts/m^2,SoftwareType,DateUTC
2013-01-17 00:02:00,1.2,-10.8,30.25,NW,314,0.0,12.0,56,0.00,,,0.00,0.0,meteohub,2013-01-17 06:02:00,
2013-01-17 00:07:00,1.0,-10.7,30.25,NW,314,0.0,7.0,57,0.00,,,0.00,0.0,meteohub,2013-01-17 06:07:00,
2013-01-17 00:12:00,1.0,-10.7,30.25,NW,314,5.0,5.0,57,0.00,,,0.00,0.0,meteohub,2013-01-17 06:12:00,
2013-01-17 00:18:00,1.0,-10.7,30.25,NW,314,0.0,5.0,57,0.00,,,0.00,0.0,meteohub,2013-01-17 06:18:00,
2013-01-17 00:23:00,1.2,-10.5,30.25,WNW,283,5.0,7.0,57,0.00,,,0.00,0.0,meteohub,2013-01-17 06:23:00,
2013-01-17 00:28:00,1.2,-10.5,30.25,WNW,286,5.0,10.0,57,0.00,,,0.00,0.0,meteohub,2013-01-17 06:28:00,
2013-01-17 00:33:00,1.2,-10.5,30.25,WNW,292,0.0,10.0,57,0.00,,,0.00,0.0,meteohub,2013-01-17 06:33:00,
2013-01-17 00:38:00,1.2,-10.5,30.25,WNW,292,0.0,10.0,57,0.00,,,0.00,0.0,meteohub,2013-01-17 06:38:00,
2013-01-17 00:43:00,1.2,-10.5,30.25,WNW,292,0.0,7.0,57,0.00,,,0.00,0.0,meteohub,2013-01-17 06:43:00,
2013-01-17 00:48:00,1.2,-10.1,30.25,WNW,292,0.0,7.0,58,0.00,,,0.00,0.0,meteohub,2013-01-17 06:48:00,
2013-01-17 00:53:00,1.2,-10.5,30.25,NW,312,0.0,7.0,57,0.00,,,0.00,0.0,meteohub,2013-01-17 06:53:00,
2013-01-17 00:58:00,1.0,-10.7,30.25,NW,312,0.0,10.0,57,0.00,,,0.00,0.0,meteohub,2013-01-17 06:58:00,
2013-01-17 01:03:00,1.0,-11.0,30.25,WNW,294,0.0,10.0,56,0.00,,,0.00,0.0,meteohub,2013-01-17 07:03:00,
2013-01-17 01:08:00,0.9,-11.2,30.25,West,279,7.0,7.0,56,0.00,,,0.00,0.0,meteohub,2013-01-17 07:08:00,
2013-01-17 01:13:00,0.9,-10.8,30.25,NW,317,0.0,7.0,57,0.00,,,0.00,0.0,meteohub,2013-01-17 07:13:00,
2013-01-17 01:18:00,0.9,-10.8,30.25,NW,305,0.0,7.0,57,0.00,,,0.00,0.0,meteohub,2013-01-17 07:18:00,
2013-01-17 01:23:00,0.9,-10.8,30.25,NW,305,0.0,7.0,57,0.00,,,0.00,0.0,meteohub,2013-01-17 07:23:00,
2013-01-17 01:28:00,0.7,-10.7,30.25,NW,305,0.0,7.0,58,0.00,,,0.00,0.0,meteohub,2013-01-17 07:28:00,
2013-01-17 01:33:00,0.7,-11.0,30.25,WNW,294,10.0,10.0,57,0.00,,,0.00,0.0,meteohub,2013-01-17 07:33:00,
2013-01-17 01:38:00,0.7,-11.0,30.26,WNW,294,0.0,10.0,57,0.00,,,0.00,0.0,meteohub,2013-01-17 07:38:00,
2013-01-17 01:43:00,0.7,-10.7,30.26,WNW,294,2.0,10.0,58,0.00,,,0.00,0.0,meteohub,2013-01-17 07:43:00,
2013-01-17 01:48:00,0.7,-10.7,30.25,NW,316,0.0,10.0,58,0.00,,,0.00,0.0,meteohub,2013-01-17 07:48:00,
2013-01-17 01:53:00,0.7,-10.7,30.25,NW,305,0.0,7.0,58,0.00,,,0.00,0.0,meteohub,2013-01-17 07:53:00,
2013-01-17 01:58:00,0.7,-11.0,30.25,NW,319,5.0,7.0,57,0.00,,,0.00,0.0,meteohub,2013-01-17 07:58:00,
2013-01-17 02:04:00,0.7,-10.7,30.26,NW,304,0.0,10.0,58,0.00,,,0.00,0.0,meteohub,2013-01-17 08:04:00,
2013-01-17 02:08:00,0.7,-11.0,30.25,WNW,293,0.0,10.0,57,0.00,,,0.00,0.0,meteohub,2013-01-17 08:08:00,
2013-01-17 02:14:00,0.5,-10.8,30.25,NW,318,0.0,10.0,58,0.00,,,0.00,0.0,meteohub,2013-01-17 08:14:00,
2013-01-17 02:19:00,0.5,-10.8,30.26,NW,319,0.0,10.0,58,0.00,,,0.00,0.0,meteohub,2013-01-17 08:19:00,
2013-01-17 02:24:00,0.5,-11.2,30.26,NW,313,0.0,10.0,57,0.00,,,0.00,0.0,meteohub,2013-01-17 08:24:00,
2013-01-17 02:29:00,0.5,-10.8,30.26,NW,313,0.0,10.0,58,0.00,,,0.00,0.0,meteohub,2013-01-17 08:29:00,
2013-01-17 02:34:00,0.5,-10.8,30.26,NW,313,0.0,10.0,58,0.00,,,0.00,0.0,meteohub,2013-01-17 08:34:00,
2013-01-17 02:39:00,0.3,-11.0,30.26,NW,313,0.0,10.0,58,0.00,,,0.00,0.0,meteohub,2013-01-17 08:39:00,
2013-01-17 02:44:00,0.3,-11.0,30.26,NW,313,0.0,0.0,58,0.00,,,0.00,0.0,meteohub,2013-01-17 08:44:00,
2013-01-17 02:49:00,0.1,-11.2,30.26,NW,313,0.0,0.0,58,0.00,,,0.00,0.0,meteohub,2013-01-17 08:49:00,
2013-01-17 02:54:00,0.0,-11.4,30.26,NW,313,0.0,0.0,58,0.00,,,0.00,0.0,meteohub,2013-01-17 08:54:00,
2013-01-17 02:59:00,0.0,-11.4,30.26,NW,313,0.0,0.0,58,0.00,,,0.00,0.0,meteohub,2013-01-17 08:59:00,
2013-01-17 03:04:00,-0.2,-11.6,30.26,NW,313,0.0,0.0,58,0.00,,,0.00,0.0,meteohub,2013-01-17 09:04:00,
2013-01-17 03:09:00,-0.2,-11.2,30.25,WSW,250,7.0,0.0,59,0.00,,,0.00,0.0,meteohub,2013-01-17 09:09:00,
2013-01-17 03:14:00,-0.2,-11.6,30.26,WSW,250,2.0,10.0,58,0.00,,,0.00,0.0,meteohub,2013-01-17 09:14:00,
2013-01-17 03:19:00,-0.4,-11.4,30.26,WSW,250,0.0,10.0,59,0.00,,,0.00,0.0,meteohub,2013-01-17 09:19:00,
2013-01-17 03:24:00,-0.6,-11.2,30.26,WSW,250,0.0,10.0,60,0.00,,,0.00,0.0,meteohub,2013-01-17 09:24:00,
2013-01-17 03:29:00,-0.6,-11.6,30.26,WSW,250,0.0,5.0,59,0.00,,,0.00,0.0,meteohub,2013-01-17 09:29:00,
2013-01-17 03:35:00,-0.8,-11.4,30.26,WSW,250,0.0,0.0,60,0.00,,,0.00,0.0,meteohub,2013-01-17 09:35:00,
2013-01-17 03:40:00,-0.9,-11.7,30.26,WSW,250,0.0,0.0,59,0.00,,,0.00,0.0,meteohub,2013-01-17 09:40:00,
2013-01-17 03:45:00,-0.9,-11.6,30.26,WSW,250,0.0,0.0,60,0.00,,,0.00,0.0,meteohub,2013-01-17 09:45:00,
2013-01-17 03:50:00,-0.9,-11.6,30.26,WSW,250,0.0,0.0,60,0.00,,,0.00,0.0,meteohub,2013-01-17 09:50:00,
2013-01-17 03:55:00,-1.1,-11.4,30.27,WSW,250,0.0,0.0,61,0.00,,,0.00,0.0,meteohub,2013-01-17 09:55:00,
2013-01-17 04:00:00,-0.9,-10.8,30.27,WSW,250,0.0,0.0,62,0.00,,,0.00,0.0,meteohub,2013-01-17 10:00:00,
2013-01-17 04:05:00,-0.9,-10.8,30.27,WSW,250,0.0,0.0,62,0.00,,,0.00,0.0,meteohub,2013-01-17 10:05:00,
2013-01-17 04:10:00,-0.8,-10.7,30.27,WSW,256,0.0,0.0,62,0.00,,,0.00,0.0,meteohub,2013-01-17 10:10:00,
2013-01-17 04:15:00,-0.8,-10.7,30.27,WSW,256,0.0,7.0,62,0.00,,,0.00,0.0,meteohub,2013-01-17 10:15:00,
2013-01-17 04:20:00,-0.6,-10.5,30.27,WSW,256,0.0,7.0,62,0.00,,,0.00,0.0,meteohub,2013-01-17 10:20:00,
2013-01-17 04:25:00,-0.4,-10.3,30.27,WSW,256,0.0,0.0,62,0.00,,,0.00,0.0,meteohub,2013-01-17 10:25:00,
2013-01-17 04:30:00,-0.2,-10.1,30.27,WSW,256,0.0,0.0,62,0.00,,,0.00,0.0,meteohub,2013-01-17 10:30:00,
2013-01-17 04:35:00,-0.2,-10.5,30.27,WSW,256,0.0,10.0,61,0.00,,,0.00,0.0,meteohub,2013-01-17 10:35:00,
2013-01-17 04:40:00,0.0,-9.9,30.27,WSW,256,0.0,10.0,62,0.00,,,0.00,0.0,meteohub,2013-01-17 10:40:00,
2013-01-17 04:45:00,0.0,-10.3,30.27,WSW,247,0.0,10.0,61,0.00,,,0.00,0.0,meteohub,2013-01-17 10:45:00,
2013-01-17 04:50:00,0.0,-9.9,30.27,WSW,247,0.0,7.0,62,0.00,,,0.00,0.0,meteohub,2013-01-17 10:50:00,
2013-01-17 04:56:00,0.1,-9.8,30.26,WSW,247,0.0,7.0,62,0.00,,,0.00,0.0,meteohub,2013-01-17 10:56:00,
2013-01-17 05:01:00,0.1,-9.8,30.27,WSW,247,2.0,5.0,62,0.00,,,0.00,0.0,meteohub,2013-01-17 11:01:00,
2013-01-17 05:06:00,0.3,-9.6,30.27,WSW,247,0.0,5.0,62,0.00,,,0.00,0.0,meteohub,2013-01-17 11:06:00,
2013-01-17 05:11:00,0.3,-9.6,30.27,WSW,247,0.0,7.0,62,0.00,,,0.00,0.0,meteohub,2013-01-17 11:11:00,
2013-01-17 05:16:00,0.5,-9.4,30.27,WSW,246,5.0,7.0,62,0.00,,,0.00,0.0,meteohub,2013-01-17 11:16:00,
2013-01-17 05:21:00,0.7,-9.6,30.27,West,259,5.0,10.0,61,0.00,,,0.00,0.0,meteohub,2013-01-17 11:21:00,
2013-01-17 05:26:00,0.7,-9.6,30.27,SW,226,0.0,15.0,61,0.00,,,0.00,0.0,meteohub,2013-01-17 11:26:00,
2013-01-17 05:31:00,0.9,-9.8,30.27,WSW,240,0.0,15.0,60,0.00,,,0.00,0.0,meteohub,2013-01-17 11:31:00,
2013-01-17 05:36:00,0.9,-9.4,30.27,WSW,240,0.0,15.0,61,0.00,,,0.00,0.0,meteohub,2013-01-17 11:36:00,
2013-01-17 05:41:00,1.0,-9.6,30.27,SW,220,10.0,15.0,60,0.00,,,0.00,0.0,meteohub,2013-01-17 11:41:00,
2013-01-17 05:46:00,1.0,-9.6,30.27,SSW,207,7.0,15.0,60,0.00,,,0.00,0.0,meteohub,2013-01-17 11:46:00,
2013-01-17 05:51:00,1.2,-9.4,30.27,WSW,251,0.0,15.0,60,0.00,,,0.00,0.0,meteohub,2013-01-17 11:51:00,
2013-01-17 05:56:00,1.2,-9.4,30.27,SW,232,2.0,12.0,60,0.00,,,0.00,0.0,meteohub,2013-01-17 11:56:00,
2013-01-17 06:01:00,1.2,-9.4,30.27,West,263,0.0,10.0,60,0.00,,,0.00,0.0,meteohub,2013-01-17 12:01:00,
2013-01-17 06:06:00,1.4,-8.9,30.27,SSW,213,0.0,10.0,61,0.00,,,0.00,0.0,meteohub,2013-01-17 12:06:00,
2013-01-17 06:12:00,1.4,-8.9,30.27,SSW,198,0.0,10.0,61,0.00,,,0.00,0.0,meteohub,2013-01-17 12:12:00,
2013-01-17 06:17:00,1.4,-8.7,30.27,WSW,244,10.0,10.0,62,0.00,,,0.00,0.0,meteohub,2013-01-17 12:17:00,
2013-01-17 06:22:00,1.4,-8.9,30.27,WSW,244,0.0,10.0,61,0.00,,,0.00,0.0,meteohub,2013-01-17 12:22:00,
2013-01-17 06:27:00,1.4,-8.3,30.27,West,271,0.0,10.0,63,0.00,,,0.00,0.0,meteohub,2013-01-17 12:27:00,
2013-01-17 06:32:00,1.4,-8.3,30.27,WSW,248,0.0,10.0,63,0.00,,,0.00,0.0,meteohub,2013-01-17 12:32:00,
2013-01-17 06:37:00,1.4,-8.3,30.27,West,273,0.0,12.0,63,0.00,,,0.00,0.0,meteohub,2013-01-17 12:37:00,
2013-01-17 06:42:00,1.4,-8.0,30.27,WSW,240,0.0,12.0,64,0.00,,,0.00,0.0,meteohub,2013-01-17 12:42:00,
2013-01-17 06:47:00,1.4,-7.6,30.27,West,265,0.0,12.0,65,0.00,,,0.00,0.0,meteohub,2013-01-17 12:47:00,
2013-01-17 06:52:00,1.4,-7.6,30.27,WSW,257,2.0,12.0,65,0.00,,,0.00,0.0,meteohub,2013-01-17 12:52:00,
2013-01-17 06:57:00,1.4,-7.2,30.27,WSW,250,0.0,20.0,66,0.00,,,0.00,0.0,meteohub,2013-01-17 12:57:00,
2013-01-17 07:02:00,1.4,-7.2,30.27,South,180,0.0,20.0,66,0.00,,,0.00,0.0,meteohub,2013-01-17 13:02:00,
2013-01-17 07:07:00,1.4,-7.2,30.27,SSW,194,0.0,20.0,66,0.00,,,0.00,0.0,meteohub,2013-01-17 13:07:00,
2013-01-17 07:12:00,1.2,-7.4,30.27,SW,225,0.0,12.0,66,0.00,,,0.00,0.0,meteohub,2013-01-17 13:12:00,
2013-01-17 07:17:00,1.4,-7.1,30.27,SW,225,0.0,12.0,67,0.00,,,0.00,0.0,meteohub,2013-01-17 13:17:00,
2013-01-17 07:22:00,1.4,-7.1,30.27,WSW,244,0.0,12.0,67,0.00,,,0.00,0.0,meteohub,2013-01-17 13:22:00,
2013-01-17 07:27:00,1.4,-7.1,30.28,WSW,244,0.0,12.0,67,0.00,,,0.00,0.0,meteohub,2013-01-17 13:27:00,
2013-01-17 07:32:00,1.4,-7.1,30.28,WSW,249,0.0,12.0,67,0.00,,,0.00,0.0,meteohub,2013-01-17 13:32:00,
2013-01-17 07:37:00,1.4,-7.1,30.28,SW,229,5.0,15.0,67,0.00,,,0.00,0.0,meteohub,2013-01-17 13:37:00,
2013-01-17 07:43:00,1.4,-7.1,30.28,SW,229,0.0,15.0,67,0.00,,,0.00,0.0,meteohub,2013-01-17 13:43:00,
2013-01-17 07:48:00,1.4,-6.7,30.28,SW,226,2.0,7.0,68,0.00,,,0.00,0.0,meteohub,2013-01-17 13:48:00,
2013-01-17 07:53:00,1.6,-6.9,30.28,West,262,0.0,15.0,67,0.00,,,0.00,0.0,meteohub,2013-01-17 13:53:00,
2013-01-17 07:58:00,1.4,-7.1,30.28,SSW,205,0.0,15.0,67,0.00,,,0.00,0.0,meteohub,2013-01-17 13:58:00,
2013-01-17 08:03:00,1.6,-6.9,30.28,SW,214,0.0,15.0,67,0.00,,,0.00,0.0,meteohub,2013-01-17 14:03:00,
2013-01-17 08:08:00,1.6,-6.9,30.28,SW,230,0.0,12.0,67,0.00,,,0.00,5.0,meteohub,2013-01-17 14:08:00,
2013-01-17 08:13:00,1.6,-6.9,30.29,WSW,247,10.0,15.0,67,0.00,,,0.00,7.0,meteohub,2013-01-17 14:13:00,
2013-01-17 08:18:00,1.8,-6.7,30.29,WSW,251,0.0,15.0,67,0.00,,,0.00,9.0,meteohub,2013-01-17 14:18:00,
2013-01-17 08:23:00,1.8,-6.7,30.30,WSW,255,0.0,15.0,67,0.00,,,0.00,9.0,meteohub,2013-01-17 14:23:00,
2013-01-17 08:28:00,1.8,-6.7,30.30,SW,214,7.0,12.0,67,0.00,,,0.00,12.0,meteohub,2013-01-17 14:28:00,
2013-01-17 08:33:00,1.9,-6.5,30.30,WSW,237,0.0,10.0,67,0.00,,,0.00,12.0,meteohub,2013-01-17 14:33:00,
2013-01-17 08:38:00,1.9,-6.2,30.30,SSW,208,7.0,17.0,68,0.00,,,0.00,16.0,meteohub,2013-01-17 14:38:00,
2013-01-17 08:43:00,2.1,-6.0,30.30,West,281,0.0,17.0,68,0.00,,,0.00,25.0,meteohub,2013-01-17 14:43:00,
2013-01-17 08:48:00,2.1,-5.6,30.30,WSW,255,0.0,12.0,69,0.00,,,0.00,28.0,meteohub,2013-01-17 14:48:00,
2013-01-17 08:54:00,2.1,-5.6,30.31,WSW,242,0.0,10.0,69,0.00,,,0.00,33.0,meteohub,2013-01-17 14:54:00,
2013-01-17 08:59:00,2.3,-5.6,30.31,WNW,283,0.0,10.0,69,0.00,,,0.00,37.0,meteohub,2013-01-17 14:59:00,
2013-01-17 09:04:00,2.3,-5.6,30.31,West,278,0.0,10.0,69,0.00,,,0.00,44.0,meteohub,2013-01-17 15:04:00,
2013-01-17 09:09:00,2.5,-5.1,30.31,WSW,252,0.0,7.0,70,0.00,,,0.00,47.0,meteohub,2013-01-17 15:09:00,
2013-01-17 09:14:00,2.5,-5.1,30.31,WSW,252,0.0,7.0,70,0.00,,,0.00,56.0,meteohub,2013-01-17 15:14:00,
2013-01-17 09:19:00,2.7,-4.9,30.31,WSW,252,0.0,7.0,70,0.00,,,0.00,63.0,meteohub,2013-01-17 15:19:00,
2013-01-17 09:24:00,2.8,-4.7,30.31,WSW,252,0.0,7.0,70,0.00,,,0.00,70.0,meteohub,2013-01-17 15:24:00,
2013-01-17 09:29:00,2.8,-4.7,30.32,WSW,252,0.0,0.0,70,0.00,,,0.00,74.0,meteohub,2013-01-17 15:29:00,
2013-01-17 09:34:00,3.0,-4.5,30.32,WSW,252,0.0,0.0,70,0.00,,,0.00,83.0,meteohub,2013-01-17 15:34:00,
2013-01-17 09:39:00,3.0,-4.2,30.32,WSW,252,2.0,0.0,71,0.00,,,0.00,84.0,meteohub,2013-01-17 15:39:00,
2013-01-17 09:44:00,3.2,-4.0,30.32,WSW,252,0.0,2.0,71,0.00,,,0.00,86.0,meteohub,2013-01-17 15:44:00,
2013-01-17 09:49:00,3.4,-3.8,30.32,WSW,252,0.0,2.0,71,0.00,,,0.00,97.0,meteohub,2013-01-17 15:49:00,
2013-01-17 09:54:00,3.4,-3.8,30.32,WSW,252,0.0,2.0,71,0.00,,,0.00,98.0,meteohub,2013-01-17 15:54:00,
2013-01-17 10:00:00,3.6,-3.5,30.32,WSW,252,0.0,2.0,72,0.00,,,0.00,109.0,meteohub,2013-01-17 16:00:00,
2013-01-17 10:05:00,3.9,-3.1,30.32,WSW,252,0.0,2.0,72,0.00,,,0.00,114.0,meteohub,2013-01-17 16:05:00,
2013-01-17 10:10:00,3.9,-3.1,30.32,WSW,252,0.0,0.0,72,0.00,,,0.00,123.0,meteohub,2013-01-17 16:10:00,
2013-01-17 10:15:00,4.3,-3.1,30.32,WSW,252,0.0,0.0,71,0.00,,,0.00,128.0,meteohub,2013-01-17 16:15:00,
2013-01-17 10:20:00,4.3,-2.7,30.32,WSW,246,0.0,0.0,72,0.00,,,0.00,156.0,meteohub,2013-01-17 16:20:00,
2013-01-17 10:25:00,4.5,-2.6,30.33,WSW,246,0.0,7.0,72,0.00,,,0.00,163.0,meteohub,2013-01-17 16:25:00,
2013-01-17 10:30:00,4.6,-2.4,30.32,WSW,246,0.0,7.0,72,0.00,,,0.00,192.0,meteohub,2013-01-17 16:30:00,
2013-01-17 10:35:00,5.0,-1.8,30.33,WSW,246,0.0,5.0,73,0.00,,,0.00,193.0,meteohub,2013-01-17 16:35:00,
2013-01-17 10:40:00,5.4,-1.7,30.33,WSW,242,5.0,5.0,72,0.00,,,0.00,158.0,meteohub,2013-01-17 16:40:00,
2013-01-17 10:45:00,5.4,-1.7,30.33,SW,236,0.0,20.0,72,0.00,,,0.00,285.0,meteohub,2013-01-17 16:45:00,
2013-01-17 10:50:00,5.5,-1.5,30.33,West,278,0.0,20.0,72,0.00,,,0.00,204.0,meteohub,2013-01-17 16:50:00,
2013-01-17 10:55:00,5.7,-1.3,30.33,West,271,0.0,20.0,72,0.00,,,0.00,206.0,meteohub,2013-01-17 16:55:00,
2013-01-17 11:01:00,6.1,-1.3,30.33,WSW,244,2.0,15.0,71,0.00,,,0.00,244.0,meteohub,2013-01-17 17:01:00,
2013-01-17 11:06:00,6.3,-1.5,30.32,NW,311,0.0,15.0,70,0.00,,,0.00,279.0,meteohub,2013-01-17 17:06:00,
2013-01-17 11:11:00,6.6,-0.8,30.33,West,275,0.0,12.0,71,0.00,,,0.00,359.0,meteohub,2013-01-17 17:11:00,
2013-01-17 11:16:00,6.8,-1.1,30.32,SSW,210,2.0,12.0,69,0.00,,,0.00,304.0,meteohub,2013-01-17 17:16:00,
2013-01-17 11:21:00,7.2,-0.6,30.32,West,268,5.0,17.0,70,0.00,,,0.00,448.0,meteohub,2013-01-17 17:21:00,
2013-01-17 11:26:00,7.5,-0.6,30.32,SW,222,10.0,17.0,69,0.00,,,0.00,320.0,meteohub,2013-01-17 17:26:00,
2013-01-17 11:31:00,7.9,-0.4,30.32,West,267,0.0,17.0,68,0.00,,,0.00,276.0,meteohub,2013-01-17 17:31:00,
2013-01-17 11:36:00,8.1,-0.2,30.32,WSW,244,0.0,17.0,68,0.00,,,0.00,251.0,meteohub,2013-01-17 17:36:00,
2013-01-17 11:41:00,8.4,0.0,30.32,NW,306,0.0,17.0,68,0.00,,,0.00,401.0,meteohub,2013-01-17 17:41:00,
2013-01-17 11:46:00,8.8,0.3,30.32,NNW,328,12.0,17.0,68,0.00,,,0.00,330.0,meteohub,2013-01-17 17:46:00,
2013-01-17 11:51:00,9.1,0.5,30.32,WNW,297,10.0,17.0,67,0.00,,,0.00,323.0,meteohub,2013-01-17 17:51:00,
2013-01-17 11:57:00,9.3,0.3,30.31,WNW,283,7.0,15.0,66,0.00,,,0.00,292.0,meteohub,2013-01-17 17:57:00,
2013-01-17 12:02:00,9.3,0.3,30.31,WNW,285,0.0,15.0,66,0.00,,,0.00,353.0,meteohub,2013-01-17 18:02:00,
2013-01-17 12:07:00,9.3,0.0,30.31,NW,323,5.0,15.0,65,0.00,,,0.00,452.0,meteohub,2013-01-17 18:07:00,
2013-01-17 12:12:00,9.7,0.3,30.31,NNW,334,5.0,15.0,65,0.00,,,0.00,381.0,meteohub,2013-01-17 18:12:00,
2013-01-17 12:17:00,9.5,0.1,30.31,West,274,0.0,15.0,65,0.00,,,0.00,432.0,meteohub,2013-01-17 18:17:00,
2013-01-17 12:22:00,9.9,0.5,30.30,WNW,288,2.0,15.0,65,0.00,,,0.00,434.0,meteohub,2013-01-17 18:22:00,
2013-01-17 12:27:00,10.0,0.7,30.30,WNW,284,10.0,12.0,65,0.00,,,0.00,348.0,meteohub,2013-01-17 18:27:00,
2013-01-17 12:32:00,10.4,0.7,30.30,NW,324,0.0,25.0,64,0.00,,,0.00,427.0,meteohub,2013-01-17 18:32:00,
2013-01-17 12:37:00,10.8,1.0,30.30,WNW,303,5.0,25.0,64,0.00,,,0.00,285.0,meteohub,2013-01-17 18:37:00,
2013-01-17 12:42:00,10.9,1.2,30.30,WNW,283,2.0,20.0,64,0.00,,,0.00,425.0,meteohub,2013-01-17 18:42:00,
2013-01-17 12:47:00,11.1,1.4,30.30,NW,309,2.0,20.0,64,0.00,,,0.00,429.0,meteohub,2013-01-17 18:47:00,
2013-01-17 12:52:00,11.5,1.8,30.30,NW,306,0.0,20.0,64,0.00,,,0.00,438.0,meteohub,2013-01-17 18:52:00,
2013-01-17 12:57:00,11.8,1.8,30.30,WNW,303,0.0,17.0,63,0.00,,,0.00,357.0,meteohub,2013-01-17 18:57:00,
2013-01-17 13:02:00,12.0,1.8,30.30,NW,317,12.0,17.0,63,0.00,,,0.00,434.0,meteohub,2013-01-17 19:02:00,
2013-01-17 13:08:00,12.6,1.6,30.31,WNW,296,2.0,17.0,61,0.00,,,0.00,455.0,meteohub,2013-01-17 19:08:00,
2013-01-17 13:13:00,12.6,1.9,30.31,NW,310,0.0,25.0,62,0.00,,,0.00,455.0,meteohub,2013-01-17 19:13:00,
2013-01-17 13:18:00,12.7,1.8,30.31,WNW,293,12.0,25.0,61,0.00,,,0.00,487.0,meteohub,2013-01-17 19:18:00,
2013-01-17 13:23:00,12.9,1.9,30.31,WNW,298,2.0,17.0,61,0.00,,,0.00,468.0,meteohub,2013-01-17 19:23:00,
2013-01-17 13:28:00,12.9,1.6,30.31,NW,323,2.0,15.0,60,0.00,,,0.00,257.0,meteohub,2013-01-17 19:28:00,
2013-01-17 13:33:00,12.4,1.6,30.31,WNW,294,17.0,17.0,61,0.00,,,0.00,243.0,meteohub,2013-01-17 19:33:00,
2013-01-17 13:38:00,12.6,1.6,30.31,WNW,291,0.0,15.0,61,0.00,,,0.00,345.0,meteohub,2013-01-17 19:38:00,
2013-01-17 13:43:00,12.7,2.5,30.31,NW,313,0.0,22.0,63,0.00,,,0.00,487.0,meteohub,2013-01-17 19:43:00,
2013-01-17 13:48:00,13.3,2.3,30.31,WNW,300,0.0,22.0,61,0.00,,,0.00,524.0,meteohub,2013-01-17 19:48:00,
2013-01-17 13:53:00,13.6,1.9,30.31,NNW,341,0.0,20.0,59,0.00,,,0.00,527.0,meteohub,2013-01-17 19:53:00,
2013-01-17 13:58:00,13.6,1.9,30.31,NNW,344,15.0,22.0,59,0.00,,,0.00,434.0,meteohub,2013-01-17 19:58:00,
2013-01-17 14:03:00,13.6,1.6,30.30,North,5,0.0,22.0,58,0.00,,,0.00,376.0,meteohub,2013-01-17 20:03:00,
2013-01-17 14:08:00,13.5,1.4,30.30,North,9,2.0,22.0,58,0.00,,,0.00,113.0,meteohub,2013-01-17 20:08:00,
2013-01-17 14:13:00,13.1,1.4,30.31,North,0,0.0,22.0,59,0.00,,,0.00,339.0,meteohub,2013-01-17 20:13:00,
2013-01-17 14:18:00,12.9,0.9,30.30,NW,313,5.0,22.0,58,0.00,,,0.00,352.0,meteohub,2013-01-17 20:18:00,
2013-01-17 14:25:00,13.3,1.6,30.30,North,5,0.0,22.0,59,0.00,,,0.00,281.0,meteohub,2013-01-17 20:25:00,
2013-01-17 14:30:00,12.9,0.9,30.31,NNW,331,0.0,17.0,58,0.00,,,0.00,216.0,meteohub,2013-01-17 20:30:00,
2013-01-17 14:35:00,12.9,1.2,30.30,NW,315,0.0,15.0,59,0.00,,,0.00,209.0,meteohub,2013-01-17 20:35:00,
2013-01-17 14:40:00,13.3,1.9,30.30,WNW,292,15.0,15.0,60,0.00,,,0.00,234.0,meteohub,2013-01-17 20:40:00,
2013-01-17 14:45:00,13.5,1.8,30.30,NNW,344,0.0,15.0,59,0.00,,,0.00,262.0,meteohub,2013-01-17 20:45:00,
2013-01-17 14:50:00,13.8,2.1,30.31,NNW,328,0.0,15.0,59,0.00,,,0.00,135.0,meteohub,2013-01-17 20:50:00,
2013-01-17 14:55:00,14.2,2.1,30.31,NW,304,0.0,15.0,58,0.00,,,0.00,243.0,meteohub,2013-01-17 20:55:00,
2013-01-17 15:00:00,14.4,1.9,30.30,NNW,335,0.0,10.0,57,0.00,,,0.00,121.0,meteohub,2013-01-17 21:00:00,
2013-01-17 15:05:00,14.4,1.9,30.30,SW,219,0.0,20.0,57,0.00,,,0.00,190.0,meteohub,2013-01-17 21:05:00,
2013-01-17 15:10:00,14.4,1.9,30.30,NW,304,2.0,20.0,57,0.00,,,0.00,105.0,meteohub,2013-01-17 21:10:00,
2013-01-17 15:15:00,14.4,1.9,30.30,NW,325,0.0,20.0,57,0.00,,,0.00,114.0,meteohub,2013-01-17 21:15:00,
2013-01-17 15:21:00,14.4,1.9,30.30,NW,318,0.0,17.0,57,0.00,,,0.00,65.0,meteohub,2013-01-17 21:21:00,
2013-01-17 15:26:00,14.4,1.9,30.30,NNE,13,0.0,15.0,57,0.00,,,0.00,113.0,meteohub,2013-01-17 21:26:00,
2013-01-17 15:31:00,14.2,1.8,30.30,NW,317,0.0,15.0,57,0.00,,,0.00,88.0,meteohub,2013-01-17 21:31:00,
2013-01-17 15:36:00,14.0,1.6,30.30,North,355,0.0,15.0,57,0.00,,,0.00,93.0,meteohub,2013-01-17 21:36:00,
2013-01-17 15:41:00,13.8,1.4,30.31,NW,312,0.0,15.0,57,0.00,,,0.00,79.0,meteohub,2013-01-17 21:41:00,
2013-01-17 15:46:00,13.5,1.0,30.31,NNW,336,0.0,15.0,57,0.00,,,0.00,76.0,meteohub,2013-01-17 21:46:00,
2013-01-17 15:51:00,13.5,1.4,30.31,NNW,331,0.0,10.0,58,0.00,,,0.00,42.0,meteohub,2013-01-17 21:51:00,
2013-01-17 15:56:00,13.5,1.4,30.30,NW,315,0.0,10.0,58,0.00,,,0.00,70.0,meteohub,2013-01-17 21:56:00,
2013-01-17 16:01:00,13.3,1.6,30.31,NW,325,0.0,7.0,59,0.00,,,0.00,54.0,meteohub,2013-01-17 22:01:00,
2013-01-17 16:06:00,13.3,1.6,30.31,NW,325,0.0,10.0,59,0.00,,,0.00,42.0,meteohub,2013-01-17 22:06:00,
2013-01-17 16:11:00,12.9,1.2,30.31,NW,325,0.0,10.0,59,0.00,,,0.00,40.0,meteohub,2013-01-17 22:11:00,
2013-01-17 16:16:00,12.9,1.2,30.31,NNW,327,10.0,10.0,59,0.00,,,0.00,37.0,meteohub,2013-01-17 22:16:00,
2013-01-17 16:22:00,12.7,1.0,30.31,NW,313,0.0,7.0,59,0.00,,,0.00,39.0,meteohub,2013-01-17 22:22:00,
2013-01-17 16:27:00,12.7,1.0,30.31,WNW,298,0.0,15.0,59,0.00,,,0.00,26.0,meteohub,2013-01-17 22:27:00,
2013-01-17 16:32:00,12.6,1.0,30.31,NNW,341,0.0,15.0,59,0.00,,,0.00,19.0,meteohub,2013-01-17 22:32:00,
2013-01-17 16:37:00,12.4,0.9,30.31,WSW,257,0.0,15.0,59,0.00,,,0.00,18.0,meteohub,2013-01-17 22:37:00,
2013-01-17 16:42:00,12.0,0.5,30.31,NNW,333,0.0,10.0,59,0.00,,,0.00,14.0,meteohub,2013-01-17 22:42:00,
2013-01-17 16:47:00,11.8,0.3,30.31,NNW,333,0.0,10.0,59,0.00,,,0.00,11.0,meteohub,2013-01-17 22:47:00,
2013-01-17 16:52:00,11.7,0.1,30.31,WSW,252,0.0,2.0,59,0.00,,,0.00,9.0,meteohub,2013-01-17 22:52:00,
2013-01-17 16:57:00,11.3,0.1,30.31,WSW,254,0.0,7.0,60,0.00,,,0.00,7.0,meteohub,2013-01-17 22:57:00,
2013-01-17 17:02:00,10.9,-0.2,30.31,WSW,254,0.0,7.0,60,0.00,,,0.00,5.0,meteohub,2013-01-17 23:02:00,
2013-01-17 17:07:00,10.8,-0.4,30.31,WSW,254,0.0,0.0,60,0.00,,,0.00,0.0,meteohub,2013-01-17 23:07:00,
2013-01-17 17:12:00,10.6,-0.2,30.31,WSW,254,0.0,0.0,61,0.00,,,0.00,0.0,meteohub,2013-01-17 23:12:00,
2013-01-17 17:17:00,10.2,-0.6,30.31,WSW,254,0.0,0.0,61,0.00,,,0.00,0.0,meteohub,2013-01-17 23:17:00,
2013-01-17 17:22:00,9.9,-0.6,30.31,WSW,254,0.0,0.0,62,0.00,,,0.00,0.0,meteohub,2013-01-17 23:22:00,
2013-01-17 17:27:00,9.5,-0.9,30.31,WSW,254,0.0,0.0,62,0.00,,,0.00,0.0,meteohub,2013-01-17 23:27:00,
2013-01-17 17:32:00,9.3,-0.8,30.31,West,263,0.0,0.0,63,0.00,,,0.00,0.0,meteohub,2013-01-17 23:32:00,
2013-01-17 17:37:00,9.1,-1.3,30.31,West,263,0.0,0.0,62,0.00,,,0.00,0.0,meteohub,2013-01-17 23:37:00,
2013-01-17 17:42:00,8.8,-1.3,30.31,West,263,0.0,0.0,63,0.00,,,0.00,0.0,meteohub,2013-01-17 23:42:00,
2013-01-17 17:47:00,8.4,-1.7,30.31,West,263,0.0,0.0,63,0.00,,,0.00,0.0,meteohub,2013-01-17 23:47:00,
2013-01-17 17:52:00,8.2,-1.8,30.31,West,263,0.0,0.0,63,0.00,,,0.00,0.0,meteohub,2013-01-17 23:52:00,
2013-01-17 17:57:00,7.9,-1.8,30.31,West,263,0.0,0.0,64,0.00,,,0.00,0.0,meteohub,2013-01-17 23:57:00,
2013-01-17 18:02:00,7.7,-2.0,30.32,West,263,0.0,0.0,64,0.00,,,0.00,0.0,meteohub,2013-01-18 00:02:00,
2013-01-17 18:08:00,7.5,-2.0,30.32,West,263,0.0,0.0,64,0.00,,,0.00,0.0,meteohub,2013-01-18 00:08:00,
2013-01-17 18:13:00,7.2,-2.2,30.32,West,263,0.0,0.0,65,0.00,,,0.00,0.0,meteohub,2013-01-18 00:13:00,
2013-01-17 18:18:00,7.0,-2.0,30.32,West,263,0.0,0.0,66,0.00,,,0.00,0.0,meteohub,2013-01-18 00:18:00,
2013-01-17 18:23:00,6.6,-2.4,30.31,West,263,0.0,0.0,66,0.00,,,0.00,0.0,meteohub,2013-01-18 00:23:00,
2013-01-17 18:28:00,6.4,-2.6,30.31,West,263,0.0,0.0,66,0.00,,,0.00,0.0,meteohub,2013-01-18 00:28:00,
2013-01-17 18:33:00,6.3,-2.4,30.31,West,263,0.0,0.0,67,0.00,,,0.00,0.0,meteohub,2013-01-18 00:33:00,
2013-01-17 18:38:00,6.3,-2.4,30.31,West,263,0.0,0.0,67,0.00,,,0.00,0.0,meteohub,2013-01-18 00:38:00,
2013-01-17 18:43:00,5.9,-2.7,30.31,West,263,0.0,0.0,67,0.00,,,0.00,0.0,meteohub,2013-01-18 00:43:00,
2013-01-17 18:48:00,5.7,-2.6,30.30,West,263,0.0,0.0,68,0.00,,,0.00,0.0,meteohub,2013-01-18 00:48:00,
2013-01-17 18:53:00,5.7,-2.2,30.30,West,263,0.0,0.0,69,0.00,,,0.00,0.0,meteohub,2013-01-18 00:53:00,
2013-01-17 18:58:00,5.5,-2.7,30.30,West,263,0.0,0.0,68,0.00,,,0.00,0.0,meteohub,2013-01-18 00:58:00,
2013-01-17 19:03:00,5.4,-2.6,30.31,West,263,0.0,0.0,69,0.00,,,0.00,0.0,meteohub,2013-01-18 01:03:00,
2013-01-17 19:08:00,5.2,-2.7,30.30,West,263,0.0,0.0,69,0.00,,,0.00,0.0,meteohub,2013-01-18 01:08:00,
2013-01-17 19:13:00,5.0,-2.9,30.30,West,263,0.0,0.0,69,0.00,,,0.00,0.0,meteohub,2013-01-18 01:13:00,
2013-01-17 19:18:00,5.0,-2.9,30.30,West,263,0.0,0.0,69,0.00,,,0.00,0.0,meteohub,2013-01-18 01:18:00,
2013-01-17 19:24:00,4.8,-2.7,30.30,West,263,0.0,0.0,70,0.00,,,0.00,0.0,meteohub,2013-01-18 01:24:00,
2013-01-17 19:29:00,4.6,-2.9,30.31,West,263,0.0,0.0,70,0.00,,,0.00,0.0,meteohub,2013-01-18 01:29:00,
2013-01-17 19:34:00,4.5,-3.1,30.31,West,263,0.0,0.0,70,0.00,,,0.00,0.0,meteohub,2013-01-18 01:34:00,
2013-01-17 19:39:00,4.1,-3.5,30.31,West,263,0.0,0.0,70,0.00,,,0.00,0.0,meteohub,2013-01-18 01:39:00,
2013-01-17 19:44:00,3.7,-3.6,30.31,West,263,0.0,0.0,71,0.00,,,0.00,0.0,meteohub,2013-01-18 01:44:00,
2013-01-17 19:49:00,3.6,-4.0,30.31,West,263,0.0,0.0,70,0.00,,,0.00,0.0,meteohub,2013-01-18 01:49:00,
2013-01-17 19:54:00,3.0,-4.2,30.31,West,263,0.0,0.0,71,0.00,,,0.00,0.0,meteohub,2013-01-18 01:54:00,
2013-01-17 19:59:00,3.0,-4.0,30.30,West,263,0.0,0.0,72,0.00,,,0.00,0.0,meteohub,2013-01-18 01:59:00,
2013-01-17 20:04:00,2.8,-4.2,30.30,West,263,0.0,0.0,72,0.00,,,0.00,0.0,meteohub,2013-01-18 02:04:00,
2013-01-17 20:09:00,2.7,-4.4,30.29,West,263,0.0,0.0,72,0.00,,,0.00,0.0,meteohub,2013-01-18 02:09:00,
2013-01-17 20:14:00,2.7,-4.0,30.29,West,263,0.0,0.0,73,0.00,,,0.00,0.0,meteohub,2013-01-18 02:14:00,
2013-01-17 20:19:00,2.8,-3.8,30.29,West,263,0.0,0.0,73,0.00,,,0.00,0.0,meteohub,2013-01-18 02:19:00,
2013-01-17 20:24:00,2.8,-3.8,30.29,West,263,0.0,0.0,73,0.00,,,0.00,0.0,meteohub,2013-01-18 02:24:00,
2013-01-17 20:29:00,2.8,-3.8,30.28,West,263,0.0,0.0,73,0.00,,,0.00,0.0,meteohub,2013-01-18 02:29:00,
2013-01-17 20:35:00,3.0,-3.5,30.29,West,263,0.0,0.0,74,0.00,,,0.00,0.0,meteohub,2013-01-18 02:35:00,
2013-01-17 20:40:00,3.0,-3.5,30.28,West,263,0.0,0.0,74,0.00,,,0.00,0.0,meteohub,2013-01-18 02:40:00,
2013-01-17 20:45:00,3.2,-3.3,30.28,West,263,0.0,0.0,74,0.00,,,0.00,0.0,meteohub,2013-01-18 02:45:00,
2013-01-17 20:50:00,3.2,-3.3,30.28,West,263,0.0,0.0,74,0.00,,,0.00,0.0,meteohub,2013-01-18 02:50:00,
2013-01-17 20:55:00,3.4,-3.1,30.28,West,263,0.0,0.0,74,0.00,,,0.00,0.0,meteohub,2013-01-18 02:55:00,
2013-01-17 21:00:00,3.4,-3.1,30.28,West,263,0.0,0.0,74,0.00,,,0.00,0.0,meteohub,2013-01-18 03:00:00,
2013-01-17 21:05:00,3.4,-3.1,30.28,West,263,0.0,0.0,74,0.00,,,0.00,0.0,meteohub,2013-01-18 03:05:00,
2013-01-17 21:10:00,3.2,-3.3,30.28,West,263,0.0,0.0,74,0.00,,,0.00,0.0,meteohub,2013-01-18 03:10:00,
2013-01-17 21:15:00,3.0,-3.5,30.28,West,263,0.0,0.0,74,0.00,,,0.00,0.0,meteohub,2013-01-18 03:15:00,
2013-01-17 21:20:00,3.2,-3.3,30.28,West,263,0.0,0.0,74,0.00,,,0.00,0.0,meteohub,2013-01-18 03:20:00,
2013-01-17 21:25:00,3.4,-2.7,30.28,West,263,0.0,0.0,75,0.00,,,0.00,0.0,meteohub,2013-01-18 03:25:00,
2013-01-17 21:30:00,3.6,-2.6,30.28,West,263,0.0,0.0,75,0.00,,,0.00,0.0,meteohub,2013-01-18 03:30:00,
2013-01-17 21:35:00,3.7,-2.4,30.27,West,263,0.0,0.0,75,0.00,,,0.00,0.0,meteohub,2013-01-18 03:35:00,
2013-01-17 21:40:00,3.9,-2.2,30.27,West,263,0.0,0.0,75,0.00,,,0.00,0.0,meteohub,2013-01-18 03:40:00,
2013-01-17 21:45:00,4.1,-2.0,30.26,West,263,0.0,0.0,75,0.00,,,0.00,0.0,meteohub,2013-01-18 03:45:00,
2013-01-17 21:51:00,4.3,-1.8,30.26,West,263,0.0,0.0,75,0.00,,,0.00,0.0,meteohub,2013-01-18 03:51:00,
2013-01-17 21:56:00,4.5,-1.7,30.26,West,263,0.0,0.0,75,0.00,,,0.00,0.0,meteohub,2013-01-18 03:56:00,
2013-01-17 22:01:00,4.6,-1.5,30.26,West,263,0.0,0.0,75,0.00,,,0.00,0.0,meteohub,2013-01-18 04:01:00,
2013-01-17 22:06:00,4.8,-1.3,30.26,West,263,0.0,0.0,75,0.00,,,0.00,0.0,meteohub,2013-01-18 04:06:00,
2013-01-17 22:11:00,5.2,-0.9,30.26,West,263,0.0,0.0,75,0.00,,,0.00,0.0,meteohub,2013-01-18 04:11:00,
2013-01-17 22:16:00,5.4,-0.8,30.25,West,263,0.0,0.0,75,0.00,,,0.00,0.0,meteohub,2013-01-18 04:16:00,
2013-01-17 22:21:00,5.5,-0.6,30.25,West,263,0.0,0.0,75,0.00,,,0.00,0.0,meteohub,2013-01-18 04:21:00,
2013-01-17 22:26:00,5.7,-0.4,30.25,West,263,0.0,0.0,75,0.00,,,0.00,0.0,meteohub,2013-01-18 04:26:00,
2013-01-17 22:31:00,5.9,-0.6,30.25,West,263,0.0,0.0,74,0.00,,,0.00,0.0,meteohub,2013-01-18 04:31:00,
2013-01-17 22:36:00,6.1,-0.4,30.24,West,263,0.0,0.0,74,0.00,,,0.00,0.0,meteohub,2013-01-18 04:36:00,
2013-01-17 22:41:00,6.1,-0.4,30.24,West,263,0.0,0.0,74,0.00,,,0.00,0.0,meteohub,2013-01-18 04:41:00,
2013-01-17 22:46:00,6.3,-0.6,30.23,West,263,0.0,0.0,73,0.00,,,0.00,0.0,meteohub,2013-01-18 04:46:00,
2013-01-17 22:51:00,6.3,-0.6,30.23,West,263,0.0,0.0,73,0.00,,,0.00,0.0,meteohub,2013-01-18 04:51:00,
2013-01-17 22:56:00,6.3,-0.6,30.23,West,263,0.0,0.0,73,0.00,,,0.00,0.0,meteohub,2013-01-18 04:56:00,
2013-01-17 23:00:00,6.4,-0.6,30.23,West,263,0.0,0.0,72,0.00,,,0.00,0.0,meteohub,2013-01-18 05:00:00,
2013-01-17 23:03:00,6.4,-0.6,30.24,West,263,0.0,0.0,72,0.00,,,0.00,0.0,meteohub,2013-01-18 05:03:00,
2013-01-17 23:08:00,6.4,-0.6,30.23,West,263,0.0,0.0,72,0.00,,,0.00,0.0,meteohub,2013-01-18 05:08:00,
2013-01-17 23:13:00,6.6,-0.4,30.23,West,263,0.0,0.0,72,0.00,,,0.00,0.0,meteohub,2013-01-18 05:13:00,
2013-01-17 23:18:00,6.6,-0.4,30.23,West,263,0.0,0.0,72,0.00,,,0.00,0.0,meteohub,2013-01-18 05:18:00,
2013-01-17 23:24:00,6.8,-0.2,30.23,West,263,0.0,0.0,72,0.00,,,0.00,0.0,meteohub,2013-01-18 05:24:00,
2013-01-17 23:29:00,6.8,-0.2,30.22,West,263,0.0,0.0,72,0.00,,,0.00,0.0,meteohub,2013-01-18 05:29:00,
2013-01-17 23:34:00,7.0,-0.2,30.22,West,263,0.0,0.0,72,0.00,,,0.00,0.0,meteohub,2013-01-18 05:34:00,
2013-01-17 23:39:00,7.2,0.0,30.22,ESE,105,0.0,0.0,72,0.00,,,0.00,0.0,meteohub,2013-01-18 05:39:00,
2013-01-17 23:44:00,7.2,0.3,30.21,ESE,105,0.0,0.0,73,0.00,,,0.00,0.0,meteohub,2013-01-18 05:44:00,
2013-01-17 23:49:00,7.3,0.1,30.20,ESE,105,0.0,0.0,72,0.00,,,0.00,0.0,meteohub,2013-01-18 05:49:00,
2013-01-17 23:54:00,7.3,0.1,30.20,ESE,105,0.0,0.0,72,0.00,,,0.00,0.0,meteohub,2013-01-18 05:54:00,
2013-01-17 23:59:00,7.5,0.3,30.20,ESE,105,0.0,2.0,72,0.00,,,0.00,0.0,meteohub,2013-01-18 05:59:00,